Regional Weather Roundup
Issued by NWS

Home | Current Version | Previous Version | Graphics & Text | Print | Product List | Glossary On
Versions: 1 2 3 4 5 6 7 8 9 10 11 12 13 14 15 16 17 18 19 20 21 22 23 24 25 26 27 28 29 30 31 32 33 34 35 36 37 38 39 40 41 42 43 44 45 46 47 48 49 50
000
ASUS45 KBOU 230107
RWRCO

WEATHER ROUNDUP FOR COLORADO
NATIONAL WEATHER SERVICE DENVER/BOULDER CO
700 PM MDT FRI AUG 22 2014

NOTE: "FAIR" INDICATES FEW OR NO CLOUDS BELOW 12000 FEET WITH NO
SIGNIFICANT WEATHER AND/OR OBSTRUCTIONS TO VISIBILITY.

COZ001>005-013-030-031-230200-
...NORTHWEST COLORADO...

CITY           SKY/WX    TMP DP  RH WIND       PRES   REMARKS
CRAIG          CLOUDY    64  53  67 CALM      30.06F
HAYDEN         CLOUDY    64  46  52 W6        30.08S
MEEKER         PTSUNNY   65  52  62 N6        30.08F
MOUNT WERNER   NOT AVBL
STEAMBOAT SPGS CLOUDY    64  48  56 S3        30.10S
WALDEN         CLOUDY    61  43  51 S12       30.16F
$$

COZ006>008-011-230200-
...WEST CENTRAL VALLEYS...

CITY           SKY/WX    TMP DP  RH WIND       PRES   REMARKS
GRAND JUNCTION CLOUDY    64  59  83 SE8       30.01F
MONTROSE       CLOUDY    65  56  72 SE6       30.12F
EAGLE          MOCLDY    70  52  52 CALM      30.10F
RIFLE          MOCLDY    69  52  54 W7        30.02F
DELTA          RAIN      71  50  47 S6        30.08S
NUCLA          CLOUDY    63  50  63 SE5       30.15F
$$

COZ017>023-064>068-230200-
...SOUTHWEST COLORADO...

CITY           SKY/WX    TMP DP  RH WIND       PRES   REMARKS
DURANGO        MOCLDY    57  51  80 N8        30.21F
CORTEZ         SUNNY     61  50  67 E13       30.14F
PAGOSA SPRINGS MOCLDY    59  47  64 W14       30.26S
TELLURIDE      NOT AVBL
WOLF CREEK PAS NOT AVBL
$$

COZ009-010-012-014-032>034-037-058>063-230200-
...CENTRAL COLORADO...

CITY           SKY/WX    TMP DP  RH WIND       PRES   REMARKS
ASPEN          CLOUDY    64  45  49 S6        30.15F
BUENA VISTA    CLOUDY    57  46  67 SE6       30.20F
COPPER MTN     CLOUDY    46  39  76 S12       30.43F
BERTHOUD PASS  MOCLDY    39  37  93 W6        30.47F
COTTONWOOD PAS CLOUDY    54  45  71 CALM      30.31F
GUNNISON       MOCLDY    63  43  48 S7        30.20S
KREMMLING      CLOUDY    64  46  52 CALM      30.13F
LEADVILLE      CLOUDY    48  43  82 S7        30.29F
SALIDA         CLOUDY    59  51  74 CALM      30.25F
SUNLIGHT       MOCLDY    52  45  76 CALM      30.37F
WILKERSON PASS NOT AVBL
$$

COZ069>075-230200-
...SAN LUIS VALLEY/SANGRE DE CRISTO MOUNTAINS...

CITY           SKY/WX    TMP DP  RH WIND       PRES   REMARKS
ALAMOSA        CLOUDY    55  50  83 SW3       30.24F
LA VETA PASS   NOT AVBL
SAGUACHE       MOCLDY    54  50  87 CALM      30.25F
$$

COZ035-036-038>040-230200-
...NORTHERN COLORADO FRONT RANGE...

CITY           SKY/WX    TMP DP  RH WIND       PRES   REMARKS
DENVER INTL AP CLOUDY    62  58  86 E18       30.05F
DMNS CITY PARK   N/A     64  57  77 SE3G14    30.04S
AURORA         MOCLDY    62  58  86 E14       30.05F
FRONT RANGE AP MOCLDY    63  59  88 E13G18    30.08F
ERIE MUNI ARPT CLOUDY    66  58  76 SE10      30.04S
BOULDER MUN AP CLOUDY    66  57  72 NE6       30.05R
CENTENNIAL     CLOUDY    64  57  78 E13       30.05F
BROOMFIELD     LGT RAIN  66  59  77 E8        30.07F
FORT COLLINS   CLOUDY    64  57  77 SE12      30.04F
LONGMONT       CLOUDY    68  61  78 E9        30.06R
$$

COZ041-046-047-076>085-087-088-230200-
...PIKES PEAK/PALMER DIVIDE AND SOUTHERN FOOTHILLS...

CITY           SKY/WX    TMP DP  RH WIND       PRES   REMARKS
COLO. SPRINGS  MOCLDY    72  45  37 E9        30.06F
A. F. ACADEMY  CLOUDY    67  49  52 NE8       30.07F
ELLICOTT       MOCLDY    67  54  63 MISG      30.06F
FALCON         MOCLDY    62  57  83 NE8       30.12F
FORT CARSON    MOCLDY    70  46  43 E1        30.03F
LIMON          TSTM      59  58  96 NW12      30.12R FOG
MONUMENT HILL  CLOUDY    59  54  82 E10       30.13F
TRINIDAD       PTCLDY    67  57  70 N8        30.06F
$$

COZ042>045-048>051-090-091-230200-
...NORTHEAST COLORADO...

CITY           SKY/WX    TMP DP  RH WIND       PRES   REMARKS
GREELEY ARPT   CLOUDY    63  55  77 SE13      30.04F
AKRON          LGT RAIN  61  59  93 NW20      30.05F
BURLINGTON     LGT RAIN  65  62  90 NE20G25   29.95F
WRAY             N/A     75  59  58 NE12      29.98F
STERLING       LGT RAIN  64  64 100 NW8       30.05S
HOLYOKE        NOT AVBL
FORT MORGAN    CLOUDY    61  59  94 E7        30.08F
$$

COZ086-089-092>099-230200-
...SOUTHEAST COLORADO...

CITY           SKY/WX    TMP DP  RH WIND       PRES   REMARKS
PUEBLO         PTCLDY    74  52  46 W14       29.98F
LA JUNTA       PTCLDY    72  61  68 NW13      29.96S
LAMAR          MOCLDY    72  62  71 N8        29.93S
SPRINGFIELD      N/A     72  63  73 W7        29.94F
$$



USA.gov is the U.S. government's official web portal to all federal, state and local government web resources and services.